Flag for U.S.A. Weather past 2 weeks in Long Beach, California, U.S.A.

Now
72 °F

Sunny.


Feels Like: 76 °F
Forecast: 57 / 82 °F
Wind: No wind

Location: Long Beach Airport

Current Time: Apr 28, 2015 at 9:58:04 AM

Latest Report: Apr 28, 2015 at 8:53 AM


Visibility: 10 mi

Pressure: 29.95 "Hg

Humidity: 28%

Dew point: 37 °F

Location of Long BeachLocation

Historic Weather in Long Beach — Graph

°F

Long Beach temperature yesterday

Maximum temperature yesterday: 86 °F (at 2:53 PM)
Minimum temperature yesterday: 56 °F (at 5:53 AM)
Average temperature yesterday: 71 °F

Past Weeks' High & Low Weather Summary

 TemperatureHumidityPressure
High86 °F (Apr 27, 2:53 PM)90% (Apr 15, 5:53 AM)30.10 "Hg (Apr 15, 5:53 AM)
Low52 °F (Apr 26, 3:53 AM)7% (Apr 16, 11:53 AM)29.83 "Hg (Apr 20, 5:53 PM)
Average65 °F58%29.95 "Hg
* Reported Apr 13 7:53 AM — Apr 28 7:53 AM, Long Beach, Weather by CustomWeather, © 2015

Note: Actual official high and low records may vary slightly from our data, if they occured in-between our weather recording intervals... More about our weather records

Advertising

Long Beach weather history for previous 24 hours

 ConditionsComfort  
Time TempWeatherWind HumidityBarometerVisibility
7:53 AM
Tue, Apr 28
67 °FSunny.No wind39%29.95 "Hg10 mi
6:53 AM61 °FClear.No wind52%29.94 "Hg10 mi
5:53 AM60 °FClear.No wind53%29.93 "Hg10 mi
4:53 AM60 °FClear.3 mph58%29.93 "Hg10 mi
3:53 AM61 °FClear.No wind60%29.94 "Hg10 mi
2:53 AM62 °FClear.3 mph58%29.94 "Hg10 mi
1:53 AM65 °FClear.3 mph52%29.94 "Hg10 mi
12:53 AM65 °FClear.No wind51%29.96 "Hg10 mi
11:53 PM
Mon, Apr 27
68 °FClear.No wind44%29.95 "Hg10 mi
10:53 PM68 °FClear.7 mph44%29.95 "Hg10 mi
9:53 PM71 °FClear.5 mph35%29.95 "Hg10 mi
8:53 PM73 °FClear.3 mph28%29.93 "Hg10 mi
7:53 PM71 °FSunny.12 mph32%29.91 "Hg10 mi
6:53 PM78 °FSunny.14 mph20%29.88 "Hg10 mi
5:53 PM80 °FSunny.15 mph17%29.88 "Hg10 mi
4:53 PM82 °FSunny.21 mph18%29.87 "Hg10 mi
3:53 PM84 °FSunny.20 mph21%29.87 "Hg10 mi
2:53 PM86 °FSunny.12 mph12%29.89 "Hg10 mi
1:53 PM85 °FSunny.8 mph12%29.90 "Hg10 mi
12:53 PM85 °FSunny.9 mph13%29.91 "Hg10 mi
11:53 AM84 °FSunny.5 mph15%29.93 "Hg10 mi
10:53 AM77 °FSunny.9 mph40%29.94 "Hg10 mi
9:53 AM77 °FSunny.No wind29%29.95 "Hg10 mi
Weather by CustomWeather, © 2015

See weather overviewHow to use our weather pages